| time (UTC) | temp C | wind direction | speed KPH | gust KPH | rain 1hr cm | rain 24hr cm | rain mn cm | humidity % | barometer mb |
| 20260509034355 | 15 | 0 | 3.2 | 6.4 | 0.00 | 0.00 | 0.00 | 76 | 1014.9 |
| 20260509033340 | 15 | 25 | 4.8 | 8.0 | 0.00 | 0.00 | 0.00 | 75 | 1015.0 |
| 20260509032338 | 15 | 14 | 0.0 | 3.2 | 0.00 | 0.00 | 0.00 | 76 | 1015.0 |
| 20260509031337 | 15 | 14 | 0.0 | 6.4 | 0.00 | 0.00 | 0.00 | 76 | 1014.9 |
| 20260509030338 | 15 | 11 | 3.2 | 6.4 | 0.00 | 0.00 | 0.00 | 76 | 1015.0 |
| 20260509025354 | 15 | 20 | 1.6 | 8.0 | 0.00 | 0.00 | 0.00 | 76 | 1015.0 |
| 20260509024356 | 15 | 48 | 4.8 | 6.4 | 0.00 | 0.00 | 0.00 | 76 | 1014.8 |
| 20260509023342 | 15 | 37 | 1.6 | 8.0 | 0.00 | 0.00 | 0.00 | 76 | 1015.0 |
| 20260509022340 | 15 | 34 | 6.4 | 8.0 | 0.00 | 0.00 | 0.00 | 75 | 1015.3 |
| 20260509021338 | 15 | 40 | 4.8 | 8.0 | 0.00 | 0.00 | 0.00 | 75 | 1015.3 |
| 20260509020340 | 15 | 38 | 4.8 | 9.7 | 0.00 | 0.00 | 0.00 | 75 | 1015.2 |
| 20260509015357 | 15 | 24 | 6.4 | 8.0 | 0.00 | 0.00 | 0.00 | 75 | 1015.5 |
| 20260509014339 | 15 | 27 | 3.2 | 8.0 | 0.00 | 0.00 | 0.00 | 75 | 1015.6 |
| 20260509013341 | 15 | 57 | 3.2 | 8.0 | 0.00 | 0.00 | 0.00 | 76 | 1015.8 |
| 20260509012359 | 15 | 37 | 4.8 | 9.7 | 0.00 | 0.00 | 0.00 | 76 | 1015.9 |
| 20260509011358 | 15 | 23 | 6.4 | 9.7 | 0.00 | 0.00 | 0.00 | 76 | 1015.6 |
| 20260509010337 | 15 | 46 | 4.8 | 6.4 | 0.00 | 0.00 | 0.00 | 76 | 1015.9 |
| 20260509005340 | 15 | 44 | 1.6 | 8.0 | 0.00 | 0.00 | 0.00 | 76 | 1016.0 |
| 20260509004354 | 15 | 22 | 4.8 | 9.7 | 0.00 | 0.00 | 0.00 | 76 | 1016.1 |
| 20260509003357 | 15 | 30 | 6.4 | 9.7 | 0.00 | 0.00 | 0.00 | 76 | 1016.3 |
| 20260509002338 | 15 | 44 | 1.6 | 8.0 | 0.00 | 0.00 | 0.00 | 76 | 1016.2 |
| 20260509001358 | 15 | 50 | 4.8 | 8.0 | 0.00 | 0.00 | 0.00 | 76 | 1016.1 |
| 20260509000356 | 15 | 45 | 3.2 | 8.0 | 0.00 | 0.00 | 0.00 | 76 | 1016.4 |
| 20260508235357 | 15 | 34 | 4.8 | 9.7 | 0.00 | 0.00 | 0.00 | 76 | 1016.3 |
| 20260508234338 | 15 | 21 | 4.8 | 9.7 | 0.00 | 0.00 | 0.00 | 76 | 1016.2 |
| 20260508233341 | 15 | 25 | 1.6 | 8.0 | 0.00 | 0.00 | 0.00 | 76 | 1016.4 |
| 20260508232338 | 15 | 17 | 8.0 | 11.3 | 0.00 | 0.00 | 0.00 | 76 | 1016.4 |
| 20260508231356 | 15 | 45 | 3.2 | 8.0 | 0.00 | 0.00 | 0.00 | 76 | 1016.4 |
| 20260508230338 | 15 | 51 | 4.8 | 9.7 | 0.00 | 0.00 | 0.00 | 76 | 1016.4 |
| 20260508225354 | 15 | 61 | 3.2 | 9.7 | 0.00 | 0.00 | 0.00 | 77 | 1016.5 |
| 20260508224337 | 15 | 62 | 3.2 | 8.0 | 0.00 | 0.00 | 0.00 | 77 | 1016.5 |
| 20260508223340 | 15 | 27 | 4.8 | 9.7 | 0.00 | 0.00 | 0.00 | 76 | 1016.5 |
| 20260508222342 | 15 | 49 | 6.4 | 8.0 | 0.00 | 0.00 | 0.00 | 75 | 1016.7 |
| 20260508221344 | 15 | 16 | 0.0 | 8.0 | 0.00 | 0.00 | 0.00 | 75 | 1016.6 |
| 20260508220348 | 15 | 25 | 3.2 | 8.0 | 0.00 | 0.00 | 0.00 | 74 | 1016.6 |
| 20260508215349 | 15 | 37 | 3.2 | 8.0 | 0.00 | 0.00 | 0.00 | 74 | 1016.5 |
| 20260508214356 | 15 | 48 | 4.8 | 6.4 | 0.00 | 0.00 | 0.00 | 73 | 1016.7 |
| 20260508213337 | 16 | 90 | 0.0 | 1.6 | 0.00 | 0.00 | 0.00 | 72 | 1016.7 |
| 20260508212354 | 16 | 90 | 0.0 | 0.0 | 0.00 | 0.00 | 0.00 | 72 | 1016.7 |
| 20260508211357 | 16 | 90 | 0.0 | 0.0 | 0.00 | 0.00 | 0.00 | 71 | 1016.6 |
| 20260508210338 | 16 | 90 | 0.0 | 0.0 | 0.00 | 0.00 | 0.00 | 71 | 1016.7 |
| 20260508205358 | 16 | 90 | 0.0 | 0.0 | 0.00 | 0.00 | 0.00 | 71 | 1016.6 |
| 20260508204344 | 16 | 90 | 0.0 | 3.2 | 0.00 | 0.00 | 0.00 | 71 | 1016.5 |
| 20260508203353 | 16 | 90 | 0.0 | 3.2 | 0.00 | 0.00 | 0.00 | 71 | 1016.5 |
| 20260508202350 | 16 | 90 | 0.0 | 6.4 | 0.00 | 0.00 | 0.00 | 71 | 1016.3 |
| 20260508201349 | 16 | 94 | 1.6 | 8.0 | 0.00 | 0.00 | 0.00 | 71 | 1016.1 |
| 20260508200338 | 16 | 100 | 3.2 | 9.7 | 0.00 | 0.00 | 0.00 | 71 | 1016.0 |
| 20260508195355 | 16 | 93 | 0.0 | 6.4 | 0.00 | 0.00 | 0.00 | 70 | 1015.9 |
| 20260508194357 | 17 | 96 | 1.6 | 8.0 | 0.00 | 0.00 | 0.00 | 69 | 1015.9 |
| 20260508193342 | 17 | 99 | 3.2 | 8.0 | 0.00 | 0.00 | 0.00 | 68 | 1015.8 |
| 20260508192342 | 17 | 97 | 3.2 | 6.4 | 0.00 | 0.00 | 0.00 | 67 | 1015.6 |
| 20260508191344 | 17 | 107 | 3.2 | 6.4 | 0.00 | 0.00 | 0.00 | 66 | 1015.5 |
| 20260508190344 | 17 | 114 | 1.6 | 4.8 | 0.00 | 0.00 | 0.00 | 66 | 1015.5 |
| 20260508185338 | 17 | 121 | 0.0 | 0.0 | 0.00 | 0.00 | 0.00 | 66 | 1015.5 |
| 20260508184339 | 17 | 122 | 0.0 | 0.0 | 0.00 | 0.00 | 0.00 | 66 | 1015.3 |
| 20260508183345 | 17 | 123 | 0.0 | 6.4 | 0.00 | 0.00 | 0.00 | 66 | 1015.3 |
| 20260508182339 | 17 | 122 | 3.2 | 6.4 | 0.00 | 0.00 | 0.00 | 66 | 1015.1 |
| 20260508181345 | 18 | 121 | 3.2 | 8.0 | 0.00 | 0.00 | 0.00 | 66 | 1015.0 |
| 20260508180353 | 18 | 126 | 3.2 | 14.5 | 0.00 | 0.00 | 0.00 | 66 | 1015.0 |
| 20260508175348 | 18 | 83 | 1.6 | 12.9 | 0.00 | 0.00 | 0.00 | 66 | 1014.9 |
| 20260508174347 | 18 | 139 | 8.0 | 14.5 | 0.00 | 0.00 | 0.00 | 66 | 1015.0 |
| 20260508173353 | 18 | 128 | 9.7 | 17.7 | 0.00 | 0.00 | 0.00 | 65 | 1014.9 |
| 20260508172356 | 18 | 119 | 8.0 | 17.7 | 0.00 | 0.00 | 0.00 | 63 | 1014.8 |
| 20260508171340 | 18 | 137 | 8.0 | 16.1 | 0.00 | 0.00 | 0.00 | 63 | 1014.9 |
| 20260508170345 | 18 | 239 | 1.6 | 12.9 | 0.00 | 0.00 | 0.00 | 65 | 1014.6 |
| 20260508165347 | 18 | 193 | 6.4 | 17.7 | 0.00 | 0.00 | 0.00 | 64 | 1014.7 |
| 20260508164349 | 18 | 188 | 3.2 | 14.5 | 0.00 | 0.00 | 0.00 | 63 | 1014.7 |
| 20260508163340 | 19 | 200 | 4.8 | 14.5 | 0.00 | 0.00 | 0.00 | 62 | 1014.6 |
| 20260508162341 | 18 | 205 | 3.2 | 16.1 | 0.00 | 0.00 | 0.00 | 61 | 1014.6 |
| 20260508161345 | 18 | 100 | 8.0 | 17.7 | 0.00 | 0.00 | 0.00 | 61 | 1014.6 |
| 20260508160354 | 18 | 136 | 8.0 | 19.3 | 0.00 | 0.00 | 0.00 | 61 | 1014.7 |
| 20260508155353 | 18 | 109 | 11.3 | 19.3 | 0.00 | 0.00 | 0.00 | 60 | 1014.7 |
| 20260508154338 | 18 | 145 | 9.7 | 17.7 | 0.00 | 0.00 | 0.00 | 59 | 1014.7 |
| 20260508153340 | 19 | 113 | 8.0 | 17.7 | 0.00 | 0.00 | 0.00 | 60 | 1014.7 |
| 20260508152358 | 19 | 149 | 6.4 | 19.3 | 0.00 | 0.00 | 0.00 | 59 | 1014.8 |
| 20260508151338 | 19 | 333 | 3.2 | 16.1 | 0.00 | 0.00 | 0.00 | 62 | 1014.7 |
| 20260508150350 | 19 | 155 | 3.2 | 20.9 | 0.00 | 0.00 | 0.00 | 60 | 1014.5 |
| 20260508145346 | 19 | 174 | 3.2 | 12.9 | 0.00 | 0.00 | 0.00 | 60 | 1014.6 |
| 20260508144354 | 19 | 125 | 8.0 | 17.7 | 0.00 | 0.00 | 0.00 | 59 | 1014.6 |
| 20260508143355 | 19 | 123 | 9.7 | 16.1 | 0.00 | 0.00 | 0.00 | 58 | 1014.6 |
| 20260508142352 | 20 | 128 | 11.3 | 19.3 | 0.00 | 0.00 | 0.00 | 58 | 1014.7 |
| 20260508141354 | 20 | 123 | 6.4 | 14.5 | 0.00 | 0.00 | 0.00 | 55 | 1014.8 |
| 20260508140337 | 20 | 278 | 3.2 | 12.9 | 0.00 | 0.00 | 0.00 | 56 | 1014.9 |
| 20260508135340 | 20 | 149 | 4.8 | 12.9 | 0.00 | 0.00 | 0.00 | 56 | 1015.0 |
| 20260508134346 | 20 | 186 | 3.2 | 14.5 | 0.00 | 0.00 | 0.00 | 57 | 1015.1 |
| 20260508133351 | 20 | 131 | 4.8 | 14.5 | 0.00 | 0.00 | 0.00 | 54 | 1015.3 |
| 20260508132350 | 20 | 220 | 3.2 | 12.9 | 0.00 | 0.00 | 0.00 | 55 | 1015.4 |
| 20260508131355 | 20 | 222 | 3.2 | 11.3 | 0.00 | 0.00 | 0.00 | 55 | 1015.3 |
| 20260508130341 | 20 | 69 | 8.0 | 16.1 | 0.00 | 0.00 | 0.00 | 56 | 1015.2 |
| 20260508125358 | 19 | 129 | 6.4 | 16.1 | 0.00 | 0.00 | 0.00 | 57 | 1015.4 |
| 20260508124356 | 19 | 134 | 8.0 | 22.5 | 0.00 | 0.00 | 0.00 | 56 | 1015.5 |
| 20260508123354 | 19 | 121 | 4.8 | 16.1 | 0.00 | 0.00 | 0.00 | 54 | 1015.4 |
| 20260508122354 | 19 | 135 | 4.8 | 16.1 | 0.00 | 0.00 | 0.00 | 54 | 1015.4 |
| 20260508121340 | 19 | 159 | 6.4 | 12.9 | 0.00 | 0.00 | 0.00 | 56 | 1015.4 |
| 20260508120340 | 19 | 153 | 3.2 | 12.9 | 0.00 | 0.00 | 0.00 | 55 | 1015.5 |
| 20260508115340 | 18 | 120 | 6.4 | 17.7 | 0.00 | 0.00 | 0.00 | 56 | 1015.4 |
| 20260508114347 | 18 | 108 | 12.9 | 17.7 | 0.00 | 0.00 | 0.00 | 57 | 1015.4 |
| 20260508113350 | 19 | 166 | 6.4 | 17.7 | 0.00 | 0.00 | 0.00 | 58 | 1015.3 |
| 20260508112343 | 19 | 131 | 8.0 | 14.5 | 0.00 | 0.00 | 0.00 | 57 | 1015.2 |
| 20260508111347 | 19 | 74 | 8.0 | 14.5 | 0.00 | 0.00 | 0.00 | 58 | 1015.3 |
| 20260508110354 | 19 | 111 | 11.3 | 14.5 | 0.00 | 0.00 | 0.00 | 56 | 1015.2 |
| 20260508105356 | 18 | 128 | 6.4 | 12.9 | 0.00 | 0.00 | 0.00 | 56 | 1015.2 |
| 20260508104339 | 19 | 155 | 3.2 | 16.1 | 0.00 | 0.00 | 0.00 | 58 | 1015.3 |
| 20260508103344 | 19 | 153 | 3.2 | 14.5 | 0.00 | 0.00 | 0.00 | 58 | 1015.5 |
| 20260508102342 | 19 | 100 | 1.6 | 12.9 | 0.00 | 0.00 | 0.00 | 59 | 1015.5 |
| 20260508101353 | 18 | 136 | 3.2 | 16.1 | 0.00 | 0.00 | 0.00 | 60 | 1015.6 |
| 20260508100338 | 18 | 104 | 6.4 | 19.3 | 0.00 | 0.00 | 0.00 | 60 | 1015.7 |
| 20260508095357 | 18 | 193 | 3.2 | 12.9 | 0.00 | 0.00 | 0.00 | 64 | 1015.6 |
| 20260508094357 | 18 | 133 | 8.0 | 12.9 | 0.00 | 0.00 | 0.00 | 64 | 1015.7 |
| 20260508093338 | 18 | 160 | 4.8 | 14.5 | 0.00 | 0.00 | 0.00 | 63 | 1015.6 |
| 20260508092356 | 18 | 115 | 6.4 | 12.9 | 0.00 | 0.00 | 0.00 | 62 | 1015.6 |
| 20260508091338 | 18 | 128 | 4.8 | 12.9 | 0.00 | 0.00 | 0.00 | 65 | 1015.3 |
| 20260508090344 | 18 | 249 | 6.4 | 11.3 | 0.00 | 0.00 | 0.00 | 64 | 1015.3 |
| 20260508085345 | 18 | 273 | 4.8 | 8.0 | 0.00 | 0.00 | 0.00 | 63 | 1015.3 |
| 20260508084352 | 17 | 239 | 3.2 | 11.3 | 0.00 | 0.00 | 0.00 | 63 | 1015.3 |
| 20260508083353 | 17 | 0 | 1.6 | 6.4 | 0.00 | 0.00 | 0.00 | 62 | 1015.1 |
| 20260508082341 | 17 | 0 | 0.0 | 6.4 | 0.00 | 0.00 | 0.00 | 62 | 1015.0 |
| 20260508081349 | 17 | 16 | 0.0 | 6.4 | 0.00 | 0.00 | 0.00 | 63 | 1014.8 |
| 20260508080349 | 16 | 84 | 0.0 | 6.4 | 0.00 | 0.00 | 0.00 | 66 | 1014.7 |
| 20260508075350 | 16 | 85 | 1.6 | 8.0 | 0.00 | 0.00 | 0.00 | 69 | 1014.9 |
| 20260508074354 | 15 | 76 | 3.2 | 6.4 | 0.00 | 0.00 | 0.00 | 72 | 1014.8 |
| 20260508073354 | 15 | 23 | 0.0 | 9.7 | 0.00 | 0.00 | 0.00 | 75 | 1014.9 |
| 20260508072336 | 14 | 94 | 4.8 | 6.4 | 0.00 | 0.00 | 0.00 | 78 | 1014.8 |
| 20260508071357 | 13 | 63 | 3.2 | 8.0 | 0.00 | 0.00 | 0.00 | 80 | 1014.6 |
| 20260508070357 | 13 | 1 | 4.8 | 6.4 | 0.00 | 0.00 | 0.00 | 81 | 1014.4 |
| 20260508065357 | 13 | 24 | 3.2 | 6.4 | 0.00 | 0.00 | 0.00 | 82 | 1014.5 |
| 20260508064357 | 12 | 27 | 0.0 | 6.4 | 0.00 | 0.00 | 0.00 | 83 | 1014.5 |
| 20260508063343 | 12 | 65 | 1.6 | 4.8 | 0.00 | 0.00 | 0.00 | 83 | 1014.4 |
| 20260508062337 | 12 | 66 | 1.6 | 3.2 | 0.00 | 0.00 | 0.00 | 84 | 1014.5 |
| 20260508061339 | 12 | 66 | 0.0 | 4.8 | 0.00 | 0.00 | 0.00 | 84 | 1014.4 |
| 20260508060342 | 12 | 67 | 1.6 | 3.2 | 0.00 | 0.00 | 0.00 | 84 | 1014.4 |
| 20260508055341 | 11 | 67 | 1.6 | 4.8 | 0.00 | 0.00 | 0.00 | 84 | 1014.4 |
| 20260508054359 | 11 | 72 | 0.0 | 4.8 | 0.00 | 0.00 | 0.00 | 84 | 1014.3 |
| 20260508053356 | 11 | 73 | 0.0 | 3.2 | 0.00 | 0.00 | 0.00 | 84 | 1014.2 |
| 20260508052354 | 11 | 76 | 0.0 | 4.8 | 0.00 | 0.00 | 0.00 | 84 | 1014.0 |
| 20260508051337 | 11 | 132 | 0.0 | 3.2 | 0.00 | 0.00 | 0.00 | 84 | 1013.8 |
| 20260508050342 | 11 | 132 | 0.0 | 1.6 | 0.00 | 0.00 | 0.00 | 84 | 1013.9 |
| 20260508045344 | 11 | 132 | 0.0 | 1.6 | 0.00 | 0.00 | 0.00 | 83 | 1013.7 |
| 20260508044351 | 12 | 132 | 0.0 | 0.0 | 0.00 | 0.00 | 0.00 | 83 | 1013.8 |
| 20260508043355 | 12 | 132 | 0.0 | 1.6 | 0.00 | 0.00 | 0.00 | 83 | 1013.7 |
| 20260508042346 | 12 | 132 | 0.0 | 3.2 | 0.00 | 0.00 | 0.00 | 83 | 1013.7 |
| 20260508041351 | 12 | 132 | 1.6 | 4.8 | 0.00 | 0.00 | 0.00 | 82 | 1013.5 |
| 20260508040338 | 12 | 132 | 0.0 | 0.0 | 0.00 | 0.00 | 0.00 | 82 | 1013.4 |
| 20260508035351 | 12 | 132 | 0.0 | 0.0 | 0.00 | 0.00 | 0.00 | 82 | 1013.3 |